Wind_Speed
36 36 37 38 39 39 40 40 41 41 42 43 43 45 46 46 46 48 48 48 48 46 43 42 43 46 46 45 44 44 42 40 40 42 42 41 39 42 31 34 32 34 36 41 37
41 42 42 42 43 43 44 44 44 44 46 46 47 47 48 48 49 51 51 51 51 51 51 49 47 46 46 45 43 44 43 41 41 42 43 40 38 39 31 32 32 29 32 35 35
42 44 45 46 46 46 46 47 48 48 50 51 52 51 50 52 54 55 54 54 54 54 55 52 50 49 47 45 43 46 42 43 44 44 45 46 43 38 32 33 30 25 29 31 31
43 44 46 48 49 50 50 49 50 52 53 53 54 54 55 55 56 57 57 57 58 58 56 56 53 54 51 48 45 44 44 45 46 43 46 45 43 38 29 32 31 25 25 28 30
43 45 47 50 52 54 55 55 55 55 57 57 56 58 60 62 65 62 64 63 61 60 60 59 58 60 56 50 46 50 45 49 46 44 47 45 43 39 33 32 30 29 22 23 25
49 52 53 54 55 56 56 58 60 64 64 64 65 66 66 67 67 66 68 69 66 67 66 67 65 63 61 56 51 55 50 54 50 47 47 44 42 44 38 36 31 29 24 21 18
53 54 56 57 58 59 59 61 62 65 66 68 69 69 70 78 74 73 75 76 78 73 73 71 71 66 64 62 58 60 58 61 57 53 50 51 45 44 45 38 35 28 22 20 17
58 61 62 63 65 66 66 68 70 69 69 69 69 70 71 77 77 80 78 79 81 80 79 77 74 73 71 70 66 66 63 68 63 61 55 52 51 47 42 40 37 35 25 19 15
54 52 50 45 45 46 45 48 48 46 48 54 55 54 54 61 65 73 73 77 77 78 81 84 80 79 76 73 73 69 66 72 69 66 60 54 53 46 40 40 40 37 32 24 21
28 28 28 30 33 35 37 38 40 43 48 49 48 50 54 59 63 63 62 62 66 71 76 81 80 78 77 77 70 72 72 74 69 69 63 57 53 49 42 42 41 35 33 30 24
29 30 31 32 35 37 40 43 45 48 53 51 52 48 53 56 58 65 69 65 65 64 64 67 64 66 76 76 75 77 74 72 71 72 64 62 55 51 45 45 40 38 31 30 28
28 31 33 35 38 40 44 45 46 47 59 52 54 54 50 53 54 62 69 69 69 68 71 68 58 64 70 69 72 78 76 70 74 74 67 66 60 57 50 48 42 38 34 28 26
29 31 35 36 40 43 45 46 48 51 53 55 54 56 55 53 53 59 66 68 71 71 74 70 61 73 74 70 64 66 69 75 76 81 73 68 60 62 54 50 47 41 36 29 28
31 33 38 37 42 44 45 47 50 53 55 55 56 54 55 53 57 63 68 72 73 75 78 71 69 73 79 73 70 64 64 78 80 84 78 73 61 60 60 55 54 43 37 31 29
35 37 40 42 43 47 48 52 53 55 58 56 58 57 57 58 61 72 72 75 80 85 87 77 80 77 79 74 84 68 76 74 83 87 83 71 63 55 60 65 57 45 39 36 30
40 43 44 48 49 51 51 53 55 57 60 58 57 57 57 61 65 66 70 78 83 82 78 72 78 78 73 76 85 77 83 81 77 82 82 72 69 56 68 66 56 49 44 40 34
48 48 49 52 52 53 55 54 55 57 59 58 59 59 59 65 71 69 66 64 62 61 61 65 69 72 69 74 81 77 81 80 79 76 74 80 72 58 71 64 57 51 46 43 42
53 51 53 56 56 54 55 55 54 55 59 61 64 64 63 66 72 70 63 55 51 48 53 57 61 62 67 71 80 79 80 78 76 75 77 84 69 65 71 65 60 54 49 46 45
60 57 57 59 57 57 56 56 55 57 61 67 69 71 70 68 71 71 63 52 48 44 45 52 53 63 70 71 77 78 78 76 76 74 75 80 76 78 72 69 64 56 51 46 45
62 60 61 61 60 60 59 58 59 62 64 70 73 75 74 73 66 70 67 54 45 39 38 38 43 51 59 66 75 78 76 77 74 75 75 77 80 80 74 70 65 59 54 50 46
65 64 64 63 61 60 62 61 61 64 67 71 75 77 75 75 68 66 63 56 46 35 34 33 38 50 52 56 61 72 75 75 75 72 73 77 80 84 78 72 69 62 56 52 49
67 68 67 65 61 62 64 63 64 67 69 74 77 77 72 71 72 66 61 54 42 34 30 32 34 42 44 40 51 61 66 73 73 75 70 75 78 83 78 74 70 65 59 56 55
70 70 68 66 64 65 66 65 67 70 72 76 77 77 73 67 70 63 60 51 39 32 29 27 33 37 37 41 48 55 57 67 72 72 70 76 74 78 79 76 72 66 62 60 57
71 70 69 67 66 66 68 68 70 71 76 78 79 77 73 69 63 65 58 49 39 30 26 25 28 32 29 29 34 37 45 54 57 69 65 67 72 73 74 74 72 68 65 62 61
73 71 70 69 66 67 69 71 72 74 76 78 79 76 72 69 63 61 56 50 36 27 23 21 30 36 34 26 17 29 30 43 49 55 54 52 58 65 68 69 68 69 64 56 55
74 72 71 71 69 69 71 74 75 77 78 81 76 77 70 67 64 58 51 43 37 23 20 22 33 33 34 25 22 29 29 34 42 45 39 47 53 55 58 62 65 63 54 41 35
76 75 73 74 72 73 74 76 78 80 80 81 77 75 69 65 61 55 44 37 33 24 24 29 34 25 32 32 30 35 33 32 30 30 37 35 39 49 51 47 54 53 30 25 26
Wind_Direction
251 254 257 259 263 267 269 270 272 276 278 280 283 286 287 289 292 293 297 297 298 298 298 297 300 303 306 308 311 312 319 326 329 331 332 340 350 2 6 9 7 7 6 9 22
261 262 261 263 266 269 272 272 274 277 279 280 281 283 284 285 285 285 288 289 291 292 294 294 295 297 298 303 307 309 314 317 321 323 326 333 344 357 2 7 10 1 5 8 17
269 270 271 272 271 272 274 273 275 278 280 280 280 279 280 282 283 284 285 286 286 286 288 291 292 294 295 298 300 303 308 309 313 317 322 325 338 346 358 4 5 2 3 7 9
273 275 274 273 273 274 275 272 272 273 273 272 274 275 276 276 277 278 280 280 282 284 285 288 289 290 291 294 299 298 303 304 306 312 316 322 332 340 347 353 359 359 1 10 7
273 274 274 274 274 274 275 276 278 279 279 277 276 275 275 274 273 276 276 276 276 276 278 279 282 285 288 290 290 293 296 298 301 307 311 318 323 329 337 342 346 353 353 7 12
273 273 274 275 275 273 273 275 276 277 277 278 278 279 280 277 276 277 277 276 273 272 272 274 278 281 284 285 288 288 289 291 295 300 304 311 315 318 326 333 340 345 350 347 4
272 272 272 272 272 272 273 275 276 275 275 275 276 276 277 275 275 274 271 273 276 275 275 273 276 278 279 281 281 283 285 287 290 292 297 302 305 308 317 320 327 335 340 338 342
271 274 276 276 274 274 277 276 275 276 275 272 271 270 271 273 273 270 272 273 272 273 272 271 273 276 276 276 277 278 279 282 282 285 290 293 296 300 306 310 317 320 329 335 323
278 279 280 280 279 279 279 278 279 280 277 275 273 270 273 274 273 268 266 267 265 267 269 270 271 270 271 272 273 273 273 273 276 279 283 286 288 290 296 301 306 311 316 321 328
276 279 283 286 289 292 295 296 299 296 289 288 290 285 279 273 279 279 273 271 269 268 268 265 265 265 267 266 267 264 267 269 272 274 275 277 281 284 288 291 297 300 306 313 314
286 288 290 291 294 298 300 302 299 298 296 301 294 292 285 283 279 275 274 273 273 271 269 268 269 271 262 260 260 263 265 265 267 267 269 271 272 275 280 282 288 292 296 304 307
302 300 297 295 294 295 296 297 300 301 300 300 300 295 289 282 280 276 277 275 272 271 268 269 270 265 261 260 258 256 259 260 262 264 263 265 267 268 271 276 280 283 287 292 296
301 302 299 299 299 300 300 300 300 298 298 300 300 296 293 291 285 276 277 276 273 270 268 265 261 258 259 259 260 259 260 255 254 257 260 259 260 265 266 270 272 272 278 282 283
304 306 303 305 302 301 301 301 300 299 299 299 296 295 292 286 282 277 276 277 275 273 271 268 262 258 256 256 257 258 257 250 250 252 255 253 252 260 265 265 263 266 272 275 274
303 303 303 304 302 302 302 301 301 300 299 298 297 294 292 288 281 281 279 274 272 270 269 268 263 260 256 255 254 252 252 250 247 248 251 251 248 247 257 259 261 265 267 269 269
305 305 304 303 303 303 301 300 299 298 297 298 299 299 297 292 288 286 281 277 275 272 268 261 260 259 257 252 251 248 251 252 255 250 252 247 248 242 252 256 262 262 264 265 268
303 305 304 303 303 302 300 300 300 301 302 304 305 305 304 299 296 297 293 289 280 272 265 251 250 250 249 249 251 251 253 254 254 250 247 243 244 239 250 256 257 259 259 261 263
302 302 303 303 302 303 301 301 301 304 305 308 310 314 310 310 306 306 303 296 285 271 256 249 244 244 242 241 244 244 245 247 250 247 241 241 241 240 245 251 253 257 258 259 260
299 300 302 303 302 303 302 302 305 307 307 310 313 313 316 316 313 311 309 307 296 276 265 255 247 240 236 235 238 241 242 243 242 241 241 239 237 240 244 247 250 253 256 257 256
298 299 301 302 302 304 302 302 305 307 310 312 315 315 318 318 316 315 314 311 300 280 264 252 239 240 244 243 240 238 239 238 239 238 240 238 237 238 240 244 248 249 251 255 255
296 297 299 300 303 302 300 302 305 308 312 313 316 317 319 319 318 316 314 312 304 285 267 250 244 237 235 242 239 238 236 236 236 237 238 237 236 237 240 241 245 247 249 253 255
295 297 298 299 301 301 301 303 306 308 311 313 314 318 318 316 315 316 314 311 302 287 275 253 232 239 238 234 239 236 236 238 241 242 240 241 238 238 241 244 245 248 249 252 254
294 296 297 299 300 301 302 304 307 309 311 313 314 317 317 316 315 316 313 310 300 290 276 249 235 228 224 223 228 229 233 237 239 241 241 240 239 240 240 242 245 248 251 254 259
292 294 296 298 300 300 301 304 304 308 309 313 315 315 315 316 314 313 313 308 296 286 274 236 218 215 212 225 228 232 234 236 237 240 239 241 239 240 240 241 244 248 252 255 261
292 294 295 296 297 299 300 300 304 306 308 312 313 313 314 313 313 313 312 304 294 285 263 242 215 204 199 203 224 221 226 229 228 238 238 236 237 242 242 243 245 248 253 261 268
290 291 293 294 296 297 298 300 303 305 309 311 312 312 312 312 311 313 309 300 290 266 244 231 213 201 199 203 206 214 221 226 226 229 224 233 232 232 238 242 244 250 258 278 290
289 290 291 293 296 297 298 299 302 304 308 309 310 310 309 309 310 311 306 290 281 253 228 206 189 172 200 201 203 231 215 218 206 211 216 224 231 231 230 235 240 249 261 259 266
Height
11017 11017 11016 11016 11016 11016 11017 11017 11017 11016 11015 11015 11014 11012 11009 11006 11003 11001 11001 11001 11001 11000 11002 11002 11000 10998 10998 10997 10996 10993 10994 10991 10988 10986 10986 10986 10984 10979 10974 10970 10961 10957 10953 10945 10939
11012 11012 11013 11013 11012 11012 11011 11011 11012 11011 11010 11009 11007 11005 11003 11001 10998 10995 10995 10994 10993 10992 10992 10995 10993 10994 10994 10992 10991 10989 10990 10987 10986 10984 10982 10983 10984 10979 10976 10971 10966 10961 10957 10951 10944
11007 11007 11006 11006 11006 11006 11006 11006 11005 11005 11003 11002 11001 10999 10997 10993 10989 10988 10986 10985 10985 10985 10984 10986 10986 10986 10987 10988 10988 10985 10986 10984 10982 10982 10980 10977 10978 10977 10976 10972 10969 10966 10960 10955 10950
11000 10999 10999 10998 10998 10997 10997 10997 10997 10997 10995 10994 10992 10990 10988 10986 10980 10980 10979 10978 10976 10974 10975 10975 10979 10976 10978 10982 10983 10980 10980 10978 10979 10979 10976 10973 10974 10975 10974 10974 10970 10966 10963 10958 10952
10992 10990 10989 10989 10988 10987 10987 10986 10987 10986 10984 10984 10984 10983 10981 10976 10968 10972 10968 10968 10967 10966 10965 10966 10966 10966 10971 10975 10977 10974 10975 10972 10972 10975 10973 10972 10969 10970 10971 10970 10968 10965 10962 10961 10955
10984 10982 10981 10980 10978 10977 10977 10976 10976 10974 10973 10972 10971 10970 10969 10961 10960 10962 10955 10952 10955 10954 10954 10952 10955 10960 10961 10965 10969 10964 10968 10963 10966 10968 10969 10970 10968 10965 10967 10967 10966 10965 10962 10960 10958
10974 10973 10972 10970 10967 10966 10966 10965 10964 10961 10961 10961 10959 10957 10955 10937 10948 10946 10941 10939 10937 10943 10942 10942 10943 10950 10953 10954 10960 10956 10959 10953 10956 10959 10964 10964 10964 10963 10961 10963 10962 10963 10962 10959 10957
10964 10962 10961 10959 10956 10955 10956 10952 10950 10949 10950 10946 10942 10940 10938 10930 10934 10926 10930 10930 10924 10927 10929 10928 10935 10935 10941 10941 10946 10946 10949 10941 10948 10950 10955 10962 10960 10960 10959 10957 10959 10958 10960 10958 10957
10953 10952 10950 10947 10944 10944 10942 10938 10938 10937 10930 10924 10924 10925 10927 10917 10912 10910 10915 10911 10912 10913 10910 10910 10919 10923 10926 10928 10931 10933 10935 10929 10936 10940 10946 10952 10954 10955 10955 10953 10953 10954 10954 10954 10952
10945 10944 10943 10940 10935 10934 10931 10929 10928 10922 10914 10916 10916 10914 10909 10903 10898 10895 10897 10899 10896 10894 10896 10895 10900 10909 10914 10913 10917 10909 10920 10917 10926 10927 10934 10942 10946 10946 10949 10948 10948 10950 10949 10948 10949
10938 10937 10935 10933 10928 10926 10922 10920 10915 10910 10901 10907 10901 10899 10891 10889 10888 10879 10873 10879 10882 10882 10883 10880 10887 10896 10891 10889 10895 10896 10905 10906 10910 10911 10923 10926 10936 10939 10943 10941 10944 10943 10944 10943 10941
10930 10928 10926 10923 10920 10917 10914 10909 10904 10899 10886 10894 10889 10885 10880 10873 10873 10868 10860 10864 10863 10866 10864 10869 10882 10872 10864 10872 10878 10882 10885 10896 10892 10894 10908 10911 10922 10925 10934 10935 10937 10938 10938 10938 10937
10923 10920 10917 10915 10911 10908 10902 10898 10894 10889 10885 10880 10875 10870 10865 10864 10859 10852 10844 10846 10845 10846 10844 10851 10863 10847 10847 10854 10867 10870 10877 10875 10878 10872 10890 10898 10909 10913 10921 10927 10928 10931 10932 10933 10931
10915 10913 10908 10907 10901 10896 10891 10888 10883 10876 10870 10867 10861 10859 10855 10853 10844 10835 10831 10826 10824 10823 10819 10829 10834 10830 10827 10842 10846 10858 10860 10855 10859 10854 10869 10881 10897 10903 10907 10912 10914 10923 10925 10925 10925
10909 10906 10901 10896 10893 10887 10882 10876 10871 10864 10855 10854 10849 10845 10840 10837 10832 10813 10814 10806 10799 10793 10792 10811 10804 10805 10808 10829 10812 10843 10830 10835 10837 10839 10848 10871 10884 10893 10893 10894 10904 10914 10918 10918 10918
10901 10896 10893 10885 10881 10876 10871 10866 10859 10852 10843 10839 10836 10830 10825 10816 10805 10800 10791 10780 10771 10764 10766 10778 10777 10778 10795 10797 10792 10813 10807 10817 10823 10829 10835 10858 10866 10886 10875 10882 10896 10903 10907 10908 10909
10891 10888 10883 10876 10872 10866 10860 10854 10846 10839 10829 10822 10818 10815 10809 10797 10779 10774 10764 10753 10742 10738 10741 10744 10749 10758 10769 10773 10774 10789 10792 10800 10807 10816 10834 10833 10849 10877 10862 10871 10884 10891 10897 10899 10900
10881 10879 10872 10865 10859 10855 10848 10841 10835 10827 10815 10808 10801 10796 10788 10777 10756 10747 10737 10726 10718 10717 10713 10719 10727 10738 10743 10751 10751 10762 10770 10778 10789 10800 10812 10818 10844 10854 10848 10863 10872 10879 10885 10889 10889
10869 10867 10860 10852 10847 10842 10835 10828 10821 10814 10803 10790 10784 10775 10767 10758 10741 10725 10715 10711 10701 10697 10701 10705 10714 10712 10715 10726 10729 10742 10753 10763 10768 10785 10793 10808 10828 10824 10836 10848 10858 10867 10873 10876 10879
10855 10853 10845 10839 10834 10828 10821 10814 10807 10799 10791 10778 10766 10758 10748 10737 10729 10710 10696 10694 10688 10685 10689 10691 10695 10700 10706 10715 10720 10723 10736 10743 10754 10766 10778 10795 10808 10813 10827 10836 10846 10855 10859 10863 10869
10842 10838 10832 10826 10822 10815 10807 10801 10794 10786 10778 10766 10753 10741 10734 10718 10710 10702 10689 10679 10674 10673 10675 10680 10683 10683 10688 10699 10715 10716 10722 10731 10737 10752 10766 10777 10788 10797 10814 10824 10832 10843 10849 10855 10858
10827 10821 10816 10813 10809 10801 10792 10786 10780 10770 10762 10751 10739 10730 10723 10709 10692 10690 10677 10669 10665 10662 10664 10666 10670 10672 10684 10687 10693 10703 10713 10719 10728 10739 10756 10761 10777 10785 10802 10812 10821 10830 10839 10843 10846
10812 10805 10800 10796 10792 10785 10776 10772 10762 10754 10746 10737 10727 10716 10708 10701 10684 10680 10667 10660 10658 10653 10654 10655 10659 10663 10669 10673 10676 10684 10698 10705 10712 10728 10742 10745 10763 10771 10789 10798 10806 10818 10825 10830 10835
10795 10790 10785 10781 10776 10769 10761 10756 10748 10743 10730 10723 10713 10702 10695 10687 10679 10663 10658 10652 10646 10644 10645 10645 10649 10654 10658 10663 10672 10681 10688 10694 10704 10711 10725 10739 10746 10761 10773 10788 10799 10805 10810 10816 10821
10776 10772 10769 10766 10763 10756 10749 10740 10733 10727 10719 10712 10699 10689 10681 10673 10666 10656 10648 10640 10638 10634 10636 10640 10644 10646 10651 10657 10665 10672 10679 10683 10689 10701 10716 10723 10736 10746 10758 10774 10784 10791 10798 10807 10812
10758 10756 10753 10747 10746 10740 10736 10725 10719 10710 10707 10696 10687 10673 10668 10660 10651 10645 10638 10631 10627 10628 10631 10633 10635 10639 10644 10652 10658 10663 10668 10674 10684 10692 10702 10711 10725 10735 10749 10760 10771 10781 10793 10804 10807
10738 10736 10734 10731 10727 10721 10717 10709 10703 10694 10693 10681 10674 10661 10654 10648 10639 10632 10629 10621 10619 10621 10622 10625 10630 10636 10643 10647 10653 10661 10663 10672 10678 10689 10696 10707 10717 10726 10738 10750 10761 10773 10786 10790 10789